GFSNW_con_lsi_000.txt.gz
Lid_Strength_Index
4 4 5 5 4 5 6 6 10 3 2 8 8 10 8 7 7 5 6 7 8 9 9 10 10 10 8 6 6 8 8 9 12 11 8 8 9 11 10 13 14 12 13 13
4 4 4 4 4 5 8 10 9 3 4 11 11 9 9 7 7 7 7 8 7 7 9 11 9 8 6 6 7 8 8 10 14 13 10 9 11 10 10 10 11 13 14 13
4 4 4 4 4 5 7 10 13 9 7 7 9 10 10 9 6 7 7 8 7 9 10 8 10 10 7 7 6 6 7 10 12 15 12 10 12 11 10 11 14 14 13 12
5 4 4 4 4 4 7 10 11 10 13 11 11 11 11 11 10 7 6 8 8 9 12 11 12 10 9 8 7 7 8 12 11 10 10 9 10 10 11 12 11 13 12 11
5 5 5 4 4 5 7 11 12 10 12 11 12 12 12 12 11 9 9 9 8 8 10 10 12 11 10 11 9 11 10 14 11 12 10 10 11 9 9 11 11 11 11 11
5 5 5 4 5 5 8 8 8 11 12 12 13 11 11 11 10 9 8 8 9 9 8 6 6 7 7 8 11 13 14 13 14 17 11 11 13 11 10 10 10 11 13 10
5 5 5 5 4 5 7 7 8 11 15 12 11 10 9 9 9 10 7 5 7 6 4 5 5 6 7 7 8 8 13 14 14 16 15 20 11 8 8 9 9 9 9 9
5 5 5 4 4 4 6 6 7 10 14 12 10 9 9 7 6 7 6 5 4 4 5 9 11 11 10 9 8 9 9 11 15 17 18 15 11 9 9 10 11 8 9 8
5 5 4 4 4 4 5 5 4 7 12 12 8 9 7 9 8 8 6 4 3 4 8 11 15 16 13 13 10 8 9 10 14 16 19 21 13 8 7 9 13 8 8 8
5 5 4 4 4 4 4 5 3 5 8 8 5 8 8 6 7 9 7 6 6 5 10 13 14 15 10 14 14 13 13 13 16 16 17 15 10 7 7 14 13 8 8 8
5 5 5 4 4 3 4 5 1 3 6 6 4 4 6 6 7 10 7 8 7 8 11 12 12 13 12 13 11 12 13 15 15 15 17 18 9 10 12 11 9 9 9 8
6 5 5 4 3 3 2 6 1 -1 4 5 2 2 2 2 3 6 6 8 7 7 10 10 11 13 11 12 15 9 14 12 14 14 14 9 8 9 9 9 9 9 9 9
6 6 5 4 3 3 2 4 1 1 4 5 4 5 2 1 1 1 7 6 5 6 5 8 9 12 10 14 12 11 9 7 11 12 9 9 8 8 8 8 9 8 9 8
5 5 4 4 3 2 1 3 1 1 4 8 7 1 3 1 1 1 2 3 3 4 5 8 10 12 8 11 10 11 9 8 10 10 9 7 8 8 8 7 7 8 8 8
5 5 4 3 3 2 1 1 1 -0 4 8 7 3 2 1 1 2 2 3 5 6 8 9 10 8 9 8 9 11 8 9 11 12 7 8 8 7 7 7 7 7 8 8
5 4 4 3 2 1 3 6 1 -0 1 6 10 4 4 3 2 3 4 4 5 6 7 9 8 6 8 12 12 8 6 6 5 7 5 5 7 6 6 7 7 6 6 6
4 4 3 2 1 1 4 5 2 -1 -0 5 9 9 4 3 3 4 4 4 5 6 7 8 8 8 8 10 13 8 6 5 5 4 5 6 5 6 5 6 6 6 5 5
4 3 2 1 0 0 2 0 -1 -1 3 4 10 10 7 3 7 8 4 6 6 7 7 7 9 8 8 12 8 7 6 5 5 5 4 5 5 4 5 5 6 7 8 7
3 2 2 1 1 3 2 -1 -1 -1 3 8 9 11 12 4 7 6 6 6 10 6 9 9 8 10 12 9 7 7 6 6 6 5 5 4 5 5 6 6 7 8 8 9
3 3 4 5 3 -1 -1 2 5 6 7 8 9 7 10 7 7 8 9 8 10 12 9 7 10 11 7 6 5 5 5 5 5 6 7 6 6 6 6 7 7 7 9 10
3 5 5 2 0 2 4 7 8 7 9 7 7 7 9 5 10 10 7 10 9 13 10 11 12 12 8 5 5 5 4 4 5 5 6 6 6 5 5 7 7 7 9 11
4 4 2 3 5 6 9 9 8 9 10 7 8 7 6 6 5 9 8 11 10 14 8 11 13 9 6 6 5 5 4 4 5 5 5 6 5 5 6 7 7 6 9 11
2 5 6 6 7 10 11 13 11 11 8 7 7 8 7 6 6 8 9 12 12 8 12 13 10 7 6 5 5 5 4 5 5 6 6 5 6 6 6 7 9 9 10 10
6 8 11 9 10 9 9 9 8 6 6 6 6 8 8 7 9 9 12 10 10 14 14 13 9 7 6 5 5 5 5 5 6 7 6 6 7 7 7 8 9 9 10 10
8 7 11 9 7 6 6 5 6 5 5 6 7 7 8 9 10 9 10 12 14 12 13 10 7 6 5 5 5 5 5 6 7 7 7 7 7 9 9 9 9 10 11 11
7 7 9 7 8 7 6 6 7 5 5 5 6 9 10 11 10 12 13 14 14 11 9 7 6 6 5 5 5 5 6 8 8 8 8 8 9 11 11 10 10 10 11 12
8 8 5 6 7 7 6 5 6 4 6 9 9 11 12 9 12 12 10 11 10 8 7 6 5 6 6 5 5 6 7 9 9 9 9 10 10 11 11 12 11 11 11 11

GFSNW_con_lsi_003.txt.gz
Lid_Strength_Index
4 4 4 4 4 5 8 10 13 5 5 11 12 14 11 9 9 8 8 8 9 10 10 11 11 11 9 6 7 10 9 11 13 12 10 9 10 11 11 15 17 15 14 15
4 4 4 5 5 5 10 13 13 7 7 15 15 12 10 9 9 9 8 9 8 8 11 13 10 10 8 7 8 10 10 12 14 13 12 11 12 11 11 11 14 15 16 15
5 5 5 5 5 5 9 13 17 13 11 11 13 13 14 13 10 10 9 10 8 9 10 9 12 11 9 7 8 6 7 11 13 15 12 11 13 12 11 12 14 14 14 13
5 5 5 4 4 5 9 13 15 13 16 15 15 15 15 16 15 12 11 12 11 12 13 11 12 10 10 8 7 9 10 15 13 12 12 12 11 11 11 12 12 14 12 13
5 5 5 4 5 5 10 14 14 14 15 14 16 15 16 15 14 13 14 14 12 12 13 11 14 11 10 11 9 11 11 15 14 16 14 13 14 12 12 10 11 11 11 12
5 5 5 4 5 6 11 11 10 11 13 15 16 16 15 14 12 12 9 10 11 11 10 8 7 7 7 8 10 11 11 12 15 18 14 15 17 13 12 11 10 10 13 10
5 5 5 4 5 6 9 10 11 14 16 15 15 13 13 13 11 12 9 7 9 7 4 5 6 7 7 8 9 8 11 12 13 16 14 20 14 9 9 11 10 8 9 9
5 5 5 5 4 5 9 9 10 12 16 15 14 14 13 12 10 9 7 6 5 5 7 10 12 11 11 10 8 8 8 11 15 17 17 14 12 10 11 13 13 9 9 8
5 5 5 5 5 5 8 9 9 10 13 15 12 13 12 13 12 10 7 5 4 5 9 11 17 16 13 14 11 8 9 9 13 15 19 20 12 9 8 9 16 10 10 11
5 6 5 5 5 5 7 9 8 11 13 12 11 12 11 7 7 9 8 7 7 6 10 13 14 15 11 15 14 13 13 13 15 15 17 14 9 8 7 16 15 11 11 11
6 6 6 6 5 5 7 9 7 10 12 11 9 8 8 6 7 10 7 8 8 9 12 13 13 14 13 13 12 13 14 15 16 15 17 18 8 9 13 10 10 10 11 11
6 6 5 6 6 5 5 9 6 6 9 11 7 5 3 3 3 6 6 7 8 7 10 11 11 13 12 12 15 9 14 11 13 13 12 8 8 8 6 6 9 9 10 10
6 6 5 6 5 5 5 8 7 7 10 11 9 7 3 2 1 1 7 6 5 6 5 8 10 12 11 14 13 12 9 9 11 11 9 8 7 5 5 5 7 8 7 8
6 5 5 5 5 5 5 8 6 6 9 12 11 4 4 2 2 2 2 4 3 4 5 8 10 11 8 12 11 11 9 9 10 10 9 8 6 6 5 5 5 6 6 6
6 6 5 5 5 4 5 6 5 4 7 12 10 6 4 4 3 3 3 3 5 6 8 9 10 8 9 9 10 11 8 9 11 11 8 8 7 5 5 6 5 6 7 7
6 5 5 5 4 4 7 10 7 4 2 6 10 5 5 4 3 3 4 4 4 5 8 8 7 6 8 12 13 8 7 6 6 8 6 6 5 5 5 5 5 6 7 7
5 5 5 4 4 5 8 10 7 1 1 6 10 11 6 4 5 6 5 5 5 6 7 8 8 8 7 10 13 8 7 6 6 5 6 7 6 6 5 5 4 4 5 6
5 5 5 4 4 4 6 4 2 0 3 4 9 10 8 5 8 9 5 7 6 6 8 7 9 8 8 12 8 7 6 6 6 6 5 6 5 5 5 5 5 5 6 7
5 5 5 7 6 7 6 2 1 2 3 8 9 11 12 5 7 6 7 6 10 7 9 9 8 10 12 9 8 7 6 7 6 6 6 6 6 6 5 5 5 6 7 8
5 7 9 12 9 4 4 6 7 5 5 7 9 7 10 7 8 8 8 8 10 12 10 7 10 10 7 6 6 6 6 5 5 7 7 7 7 7 6 6 5 5 6 7
9 11 11 8 5 8 7 9 9 7 10 7 9 9 9 6 9 10 7 10 10 13 12 12 12 12 8 7 7 5 5 5 5 5 6 6 6 6 6 6 6 5 6 8
9 9 7 7 9 9 10 10 8 11 10 8 8 9 8 8 6 9 8 11 10 14 10 12 14 10 8 6 6 5 5 5 6 6 6 6 6 6 6 6 6 5 5 8
7 9 10 10 11 14 12 16 13 13 8 8 8 9 7 7 7 8 9 12 12 10 14 13 11 9 7 6 5 5 5 5 5 5 6 6 7 6 6 6 5 5 6 8
12 12 17 12 13 11 12 11 11 8 8 8 7 8 8 9 9 9 12 10 11 16 17 15 10 7 6 6 6 6 6 5 6 6 7 8 8 7 6 6 6 6 7 8
11 10 15 13 11 9 8 8 8 7 5 7 9 9 8 9 10 9 10 13 16 14 14 10 8 6 6 7 6 6 5 5 6 7 9 9 8 7 7 8 8 8 7 8
10 10 11 11 11 10 9 9 9 6 7 7 8 9 10 11 11 12 13 13 14 12 9 7 6 6 6 7 6 5 5 6 6 8 9 9 9 9 9 9 9 9 8 9
11 10 8 9 8 9 8 7 7 5 6 9 9 12 13 10 12 14 12 13 10 8 7 6 6 6 6 6 6 5 5 7 8 10 9 9 9 9 10 11 10 10 10 10

GFSNW_con_lsi_006.txt.gz
Lid_Strength_Index
5 5 5 4 4 5 9 12 13 7 6 12 14 14 11 9 10 9 9 10 10 11 12 12 12 12 10 7 8 12 9 12 15 13 9 9 10 11 12 15 16 17 15 15
5 5 5 5 5 5 9 13 14 9 8 16 15 13 12 11 13 13 12 11 10 11 12 13 11 11 7 7 8 10 10 14 17 16 12 11 13 11 11 12 12 15 16 14
5 5 4 5 5 5 10 14 16 13 13 14 15 16 16 15 13 13 13 14 12 14 15 13 14 12 10 10 8 6 8 12 15 18 16 14 15 15 12 13 15 14 14 13
5 4 4 4 5 5 10 14 15 14 18 17 16 16 16 17 16 14 14 15 14 15 17 16 15 13 12 10 8 8 9 14 12 13 12 12 14 15 15 15 15 16 14 13
5 5 4 4 5 6 11 15 15 14 16 16 17 16 18 16 15 15 15 15 14 14 16 14 15 12 11 11 9 10 9 13 12 14 13 13 15 14 14 14 14 14 12 13
5 5 5 5 5 7 12 12 12 14 15 17 18 17 16 15 14 13 12 13 14 14 12 10 8 7 7 8 9 10 10 12 14 16 12 12 16 14 13 13 12 13 15 12
5 6 5 5 5 7 10 11 11 13 18 16 16 15 14 15 14 15 13 12 13 10 8 7 6 7 7 7 8 7 11 12 13 16 14 20 11 8 8 10 10 10 11 11
6 6 6 6 5 5 10 10 12 15 18 16 16 15 15 14 13 14 13 10 8 7 6 10 12 11 11 10 8 9 9 11 15 17 17 14 12 9 11 13 13 9 11 10
5 6 6 6 5 5 9 11 10 12 15 16 14 14 14 15 15 14 12 9 7 6 8 11 15 16 13 14 12 8 8 9 13 15 20 20 11 9 7 9 15 9 8 10
6 6 6 6 6 6 8 10 9 10 14 13 13 15 15 13 13 13 12 9 9 7 10 13 14 15 11 15 14 13 14 13 15 15 17 14 10 8 7 15 14 8 7 9
6 6 6 6 6 5 9 10 9 11 13 12 11 11 12 12 11 13 10 9 9 9 12 13 13 14 12 14 12 14 14 15 15 14 17 18 8 9 12 10 7 7 7 7
7 6 6 6 6 5 6 11 9 9 11 12 9 9 7 8 8 9 8 8 8 7 10 10 11 13 13 12 15 10 14 11 13 13 13 8 7 7 6 6 8 7 6 6
6 6 6 6 6 5 6 10 10 10 12 13 12 12 7 5 5 2 7 6 5 6 5 8 9 12 11 14 13 12 10 8 11 11 9 8 6 6 6 7 7 6 5 5
6 6 6 6 5 5 5 8 10 9 11 15 13 8 9 6 5 3 2 4 3 4 5 8 10 11 8 12 10 11 9 9 10 10 8 7 7 6 7 7 5 5 5 5
6 6 6 5 5 5 6 7 7 7 10 16 14 9 6 4 4 4 3 4 5 6 8 9 10 8 9 9 9 11 8 9 11 12 8 8 8 6 5 5 6 5 6 6
5 5 5 5 5 5 8 11 10 8 7 11 15 10 8 5 5 5 5 5 5 5 8 8 7 6 8 12 12 8 7 6 6 8 6 6 6 5 5 6 5 5 5 5
5 4 4 4 5 7 9 12 11 6 6 10 14 15 9 5 5 6 7 6 7 6 7 8 8 8 8 10 12 8 6 6 5 6 6 7 6 7 5 5 5 4 5 5
5 4 5 5 5 5 8 6 5 4 7 7 11 11 10 6 8 8 4 7 6 6 7 7 9 8 8 12 8 7 6 7 7 7 6 6 5 6 6 5 5 5 5 5
5 4 5 8 9 11 9 5 4 4 7 11 10 11 12 7 8 6 6 6 10 6 9 9 8 10 12 9 8 8 7 8 7 5 5 5 6 6 6 6 6 6 6 6
5 8 11 15 11 7 8 10 9 9 9 9 10 7 10 8 7 8 8 7 10 12 9 7 10 11 8 7 6 6 6 5 5 7 7 6 7 7 7 7 6 6 6 6
10 12 13 10 8 12 10 12 13 12 13 11 9 9 9 7 9 9 7 10 10 13 12 11 13 12 10 7 6 5 4 5 5 5 5 6 6 7 7 7 7 6 6 6
10 10 9 9 12 13 15 15 13 15 15 9 9 9 9 9 6 8 8 11 10 14 10 11 14 11 8 6 6 5 5 6 5 5 6 5 5 6 7 8 8 7 6 5
9 11 12 13 14 18 17 21 17 17 12 10 9 9 8 8 6 8 9 12 13 10 12 13 12 9 7 6 5 5 6 6 6 6 5 5 6 7 8 9 8 6 6 6
12 15 18 16 17 16 16 15 13 11 10 7 7 8 9 8 9 8 12 10 10 14 16 14 10 7 6 5 5 6 7 6 6 6 5 6 7 8 8 7 7 7 7 7
13 14 18 17 14 14 12 11 11 9 8 9 10 10 9 9 10 9 10 12 14 14 14 11 8 6 6 7 7 7 7 6 6 6 6 7 8 8 9 8 8 8 8 7
13 14 15 13 13 14 13 12 12 8 6 7 9 9 10 11 10 12 13 15 15 12 9 7 6 7 7 7 7 6 6 5 6 7 7 8 8 9 9 9 9 9 8 8
15 15 12 11 11 12 12 11 10 6 7 11 10 12 13 10 12 12 13 12 10 8 7 7 7 7 7 7 7 6 5 6 7 8 9 9 8 9 9 11 11 10 9 9

GFSNW_con_lsi_009.txt.gz
Lid_Strength_Index
4 5 4 4 4 5 8 13 13 9 8 12 14 14 13 10 12 12 13 12 11 13 14 14 13 13 11 10 9 11 9 12 16 14 9 8 9 11 12 15 16 16 15 15
4 4 4 4 5 5 10 14 14 11 10 16 16 15 15 13 14 14 14 14 13 14 14 17 13 15 10 11 12 12 10 13 17 15 12 12 13 12 12 14 14 17 18 15
4 4 4 4 5 5 11 14 18 15 14 15 17 18 17 16 14 14 14 15 14 15 16 15 16 16 13 11 12 8 8 12 14 17 15 12 13 12 12 14 17 17 17 16
4 4 4 4 5 5 12 15 16 15 19 18 18 18 17 18 17 14 14 16 15 16 18 17 17 15 14 12 10 9 10 14 12 11 11 11 11 12 12 14 15 18 16 15
5 4 4 4 5 7 12 15 16 15 17 17 18 18 19 17 16 16 16 17 15 15 17 16 17 15 15 15 12 11 9 13 11 13 11 11 12 11 11 12 12 13 14 15
5 5 5 5 5 8 13 13 13 15 17 18 19 18 17 16 16 15 14 14 15 16 15 13 13 12 12 11 11 10 10 12 14 16 12 12 15 12 11 10 9 10 14 11
5 5 5 5 5 7 11 12 13 16 19 17 17 15 15 16 16 16 14 13 15 13 11 12 12 12 11 9 8 7 11 12 13 16 14 20 12 9 9 10 9 9 10 10
5 6 6 6 5 6 10 11 13 15 19 17 16 16 16 16 15 15 14 13 12 11 13 15 17 16 14 11 9 9 9 11 15 17 16 13 11 10 10 12 12 9 11 9
6 5 6 6 6 6 10 11 11 12 15 18 15 16 16 17 17 15 14 12 11 13 13 13 16 16 13 14 11 9 9 10 13 14 18 20 12 9 7 8 15 8 8 9
6 6 6 6 5 6 9 11 10 11 14 14 15 16 17 14 14 16 14 14 14 13 15 16 15 15 11 15 15 13 13 13 15 15 17 14 9 8 7 15 14 8 7 7
6 6 6 6 6 6 9 11 10 12 14 14 13 13 15 15 14 16 15 15 15 15 17 15 14 13 12 13 12 13 14 16 15 16 18 18 8 7 11 9 7 6 7 8
6 6 6 6 6 5 6 10 10 10 12 13 11 11 10 11 11 13 12 13 12 10 11 11 11 13 11 12 15 10 14 11 13 13 13 8 6 7 6 5 7 6 6 6
6 5 5 5 5 5 6 9 9 10 12 13 14 14 11 9 9 8 13 11 9 9 5 8 9 12 12 14 13 12 11 8 11 11 9 8 7 6 5 5 6 6 5 6
6 6 5 5 4 4 4 7 8 9 11 15 14 10 12 10 10 9 8 8 6 5 5 8 9 11 8 11 11 11 9 8 10 10 9 7 7 7 6 6 5 5 5 5
6 5 5 4 4 4 5 8 7 8 11 16 14 11 10 9 9 8 8 7 6 6 8 9 10 8 9 9 9 11 8 9 11 12 7 8 7 6 5 6 6 5 6 6
6 5 5 4 4 4 9 12 11 8 7 12 16 12 12 11 9 9 8 6 6 6 8 8 7 6 8 11 12 8 7 6 6 7 6 6 6 5 5 6 6 6 6 5
5 4 4 5 4 7 9 12 11 6 7 12 15 17 13 11 10 10 9 7 7 6 7 8 8 7 7 10 12 8 7 7 7 6 7 8 7 7 5 5 5 4 5 5
4 4 5 5 5 5 8 6 6 6 9 10 16 16 15 12 12 12 8 8 6 6 7 7 8 7 8 12 9 8 7 7 8 7 6 6 5 5 5 4 5 6 6 6
4 4 5 7 10 11 9 5 5 6 9 15 14 17 20 12 12 9 7 6 9 6 9 9 8 10 12 10 9 8 7 8 6 5 5 5 6 6 6 6 6 6 7 6
4 8 10 13 9 6 7 10 12 11 11 11 13 11 12 11 14 13 9 8 9 12 9 8 10 11 7 7 7 7 6 5 5 7 8 7 7 7 6 6 6 6 7 7
10 12 13 10 8 12 12 14 13 14 15 13 12 11 12 10 12 11 9 9 10 13 12 11 12 13 9 6 6 5 4 4 5 6 6 6 6 6 6 6 6 6 7 8
10 9 8 10 12 14 15 17 17 16 17 15 11 12 11 10 9 8 8 10 10 13 9 11 13 11 8 6 6 5 4 5 6 5 6 6 5 5 6 6 6 7 8 8
9 11 11 13 14 18 18 22 20 19 15 13 12 12 9 9 8 8 9 12 12 9 12 13 12 8 6 6 5 5 5 6 6 6 6 5 5 6 6 7 7 8 8 7
13 15 17 17 18 18 18 18 16 15 14 12 10 11 12 10 10 9 12 11 10 13 14 15 10 7 6 6 6 7 7 7 7 6 5 6 7 7 7 7 7 8 8 8
14 14 18 18 17 17 16 15 15 13 11 11 11 13 12 11 10 9 11 12 15 13 14 13 7 7 7 7 7 7 7 7 7 6 6 7 8 8 8 8 8 8 8 8
12 14 15 16 17 17 17 16 15 12 10 11 11 15 13 14 13 12 14 15 16 15 10 8 8 8 8 9 8 8 7 6 6 6 7 8 8 8 9 9 9 10 9 8
14 15 13 16 16 16 16 15 13 11 11 13 12 14 16 12 14 14 15 13 11 10 9 9 9 9 9 8 8 7 7 6 6 7 7 7 7 8 9 11 11 11 10 10

GFSNW_con_lsi_012.txt.gz
Lid_Strength_Index
4 4 4 4 4 5 9 13 14 9 9 13 15 16 14 12 14 14 14 14 14 15 15 16 15 14 13 12 12 13 11 13 17 16 12 10 10 12 12 17 18 16 17 17
4 4 4 4 5 6 12 15 15 12 11 17 19 18 17 14 15 15 15 16 14 15 16 19 16 15 12 12 13 14 13 16 20 20 17 14 14 11 10 12 14 17 19 17
4 4 4 4 4 5 12 15 19 16 15 17 19 19 19 18 15 15 15 16 15 16 17 16 18 16 14 13 13 10 11 15 17 20 17 14 16 13 12 11 15 16 16 15
5 4 4 4 4 6 12 15 17 16 20 19 19 19 18 19 18 15 15 17 16 17 19 18 18 16 16 13 11 12 14 18 16 15 13 12 12 12 12 13 12 15 13 13
5 5 5 5 5 7 12 16 17 16 18 18 20 18 20 18 16 16 17 18 16 16 19 17 18 16 15 15 14 15 14 16 13 16 11 11 12 11 11 11 11 12 11 12
5 5 5 5 6 8 13 13 13 16 17 19 20 20 18 16 16 16 15 16 17 17 16 14 13 12 13 14 15 15 15 15 16 16 12 12 15 12 11 11 10 10 14 12
5 6 5 5 5 8 11 12 13 17 20 18 18 16 16 17 17 17 15 15 17 14 12 12 13 14 14 14 14 11 13 12 12 16 14 20 12 9 8 10 9 9 10 9
6 6 6 5 5 6 10 11 13 16 19 17 17 17 17 17 16 16 16 14 14 13 14 17 18 18 18 17 14 12 10 12 15 17 18 13 11 10 10 11 12 9 10 8
6 5 6 5 5 6 10 11 11 12 17 18 16 16 17 18 19 17 16 13 13 14 15 16 24 22 20 19 15 10 9 10 13 15 18 19 12 9 7 8 14 8 8 8
6 6 6 6 5 6 9 11 10 12 17 15 15 17 17 16 17 17 16 15 16 14 18 18 20 21 16 18 15 14 13 14 15 15 17 14 9 8 7 15 14 7 7 7
6 6 6 6 6 5 8 9 9 12 15 14 13 13 15 15 16 17 16 16 17 17 17 19 20 21 15 15 13 13 15 16 16 16 16 18 8 7 11 9 7 6 7 6
6 6 6 6 5 5 6 9 8 8 10 12 11 10 10 11 11 14 14 16 16 14 15 16 15 17 16 13 15 11 15 12 14 12 13 8 7 7 6 5 6 7 7 6
5 5 6 5 5 5 5 7 8 9 10 11 14 14 11 10 10 10 15 15 12 13 11 12 12 14 13 14 13 13 11 8 11 11 9 9 7 6 5 5 6 5 5 5
6 6 6 5 4 4 4 7 8 8 10 13 14 10 12 10 10 10 10 11 11 11 11 11 11 11 8 12 11 12 10 9 10 10 9 8 7 6 5 5 5 5 5 5
6 6 5 5 4 4 6 8 8 8 10 14 14 11 11 11 11 11 11 11 11 12 11 11 10 8 9 9 9 11 8 9 11 12 8 8 7 5 5 6 6 5 6 6
6 6 5 4 4 5 9 13 11 7 7 11 16 13 13 12 12 11 11 10 11 12 10 9 7 6 8 11 12 9 7 6 6 8 6 6 6 6 6 6 6 5 5 5
6 4 4 4 4 8 9 13 11 7 7 12 15 15 14 13 12 12 12 12 11 9 8 8 8 7 7 10 12 7 7 7 6 6 7 8 7 7 5 5 5 4 5 5
5 4 4 4 4 5 8 6 6 5 8 10 15 16 17 14 15 16 14 13 12 10 8 7 8 7 8 11 9 8 7 7 7 6 5 5 5 6 6 5 5 6 6 6
4 4 5 7 8 10 9 5 5 5 9 14 15 19 22 15 16 15 15 12 13 10 9 8 8 10 12 10 9 8 6 6 6 5 5 5 7 7 7 7 6 6 6 6
5 7 10 13 9 6 6 9 11 10 10 11 15 14 17 16 19 18 18 15 13 14 12 10 10 10 8 7 6 5 5 5 5 6 7 7 8 7 7 7 6 6 6 6
8 11 12 10 7 11 12 15 14 13 15 13 13 14 15 14 15 16 14 12 12 15 14 13 11 11 10 6 5 5 4 4 5 5 6 7 7 7 7 7 6 6 6 7
9 9 8 10 13 14 15 16 16 15 18 17 16 15 14 14 14 11 11 12 12 17 11 11 13 11 7 6 6 6 6 6 6 6 7 7 7 6 6 6 7 7 7 7
8 10 12 14 14 17 18 20 19 18 16 15 14 16 14 12 11 10 12 13 15 11 15 13 13 8 7 7 7 7 7 7 7 7 7 7 6 5 5 7 7 7 7 7
11 14 18 17 18 17 17 17 16 15 15 15 14 15 15 12 13 11 13 12 12 15 15 16 12 9 8 8 8 9 9 8 8 8 8 7 6 7 7 7 7 7 9 8
12 14 18 18 15 15 15 15 15 15 14 15 16 16 14 14 13 13 13 14 16 15 16 12 10 9 10 10 10 9 8 8 8 7 7 6 7 7 8 7 8 9 9 10
12 14 16 15 15 16 16 15 15 14 14 15 15 18 17 16 14 14 15 16 15 16 11 9 10 11 11 10 9 9 9 8 8 7 7 8 8 8 8 8 9 9 10 11
13 13 12 14 16 16 15 15 15 13 14 17 16 17 18 15 16 17 15 13 13 10 10 10 10 10 10 9 9 9 8 8 9 9 8 8 7 8 9 10 10 10 10 10

GFSNW_con_lsi_015.txt.gz
Lid_Strength_Index
4 4 4 4 4 5 9 12 15 10 10 13 15 16 14 12 14 14 14 13 15 15 16 17 15 15 15 13 13 15 13 14 18 17 13 12 13 13 14 17 18 16 17 17
4 4 4 4 5 7 12 14 15 12 12 19 20 18 16 14 16 15 15 15 14 15 16 19 16 16 13 13 14 15 14 17 21 20 17 15 16 15 14 13 12 16 17 15
4 4 5 5 5 6 13 16 19 16 15 16 18 19 18 18 14 15 15 15 15 16 17 16 18 17 14 14 13 11 12 15 17 21 19 15 18 16 14 13 15 15 14 13
5 5 5 5 5 7 13 16 17 16 20 18 17 18 18 18 17 15 16 16 16 17 19 18 18 17 16 14 12 13 14 18 16 16 16 15 15 15 13 12 12 15 13 12
5 5 5 5 5 7 12 16 17 17 17 17 19 18 18 17 16 16 17 17 16 16 18 17 19 17 16 16 14 14 14 18 16 18 16 15 16 12 11 11 10 11 11 12
5 5 5 5 6 9 13 14 13 17 17 18 20 19 17 17 16 16 15 15 16 17 16 15 14 13 14 14 15 16 16 17 18 21 16 15 16 11 10 10 9 9 13 10
5 5 5 5 5 8 12 13 14 18 19 18 18 16 16 16 16 17 15 15 16 15 13 13 14 15 15 14 14 13 16 16 17 19 16 19 11 8 8 9 9 8 8 9
5 6 5 5 5 7 11 12 13 16 19 17 17 16 16 16 15 15 15 14 13 13 15 17 19 18 18 17 15 15 13 15 17 17 16 13 11 9 9 10 11 8 9 8
5 5 5 5 5 6 11 11 12 14 17 18 15 16 16 17 17 16 15 13 13 13 15 17 25 23 20 20 17 14 14 13 13 13 17 19 11 8 7 7 14 8 7 8
5 6 6 5 5 6 10 11 11 13 17 15 15 17 17 15 16 15 15 14 14 14 17 19 21 21 18 20 19 18 16 15 15 14 16 13 9 8 6 14 13 7 7 7
5 6 5 5 5 5 8 9 9 12 16 15 13 13 15 14 14 16 15 16 16 16 17 18 19 20 18 18 17 16 15 16 15 14 16 17 7 7 11 8 6 6 6 6
5 6 6 6 5 5 6 9 8 8 10 13 11 11 11 10 12 13 13 15 15 14 16 17 17 18 18 17 19 13 15 11 12 12 12 8 7 7 6 5 6 6 6 5
5 5 6 5 5 5 6 8 9 9 11 12 12 13 11 9 9 9 14 14 12 13 12 14 15 17 17 18 17 14 11 8 11 11 9 8 7 6 5 5 5 5 4 5
5 5 5 5 5 4 6 8 8 9 11 14 14 10 12 10 10 10 9 12 12 12 11 13 14 15 13 15 13 12 9 8 10 10 8 7 7 6 5 5 4 5 4 4
5 5 5 5 4 4 7 9 9 8 11 16 15 11 11 11 11 11 10 11 12 13 13 14 15 12 12 12 11 11 7 9 11 11 7 8 7 5 4 5 6 5 5 5
4 5 4 4 4 5 9 12 10 7 6 12 16 12 13 11 11 12 12 12 12 13 14 13 12 9 10 12 13 8 6 6 6 8 5 6 5 5 5 5 5 5 5 5
4 4 5 3 4 7 10 12 11 7 8 12 14 14 13 13 12 12 13 13 13 13 13 12 11 10 8 10 12 7 7 6 6 5 5 7 6 6 4 4 5 4 5 5
4 4 4 4 4 5 7 7 6 6 9 10 15 15 16 13 15 15 13 14 13 12 10 10 11 9 9 12 9 8 6 6 6 5 5 5 5 5 5 5 6 6 6 6
4 4 4 7 8 9 8 5 4 5 9 14 15 17 20 14 15 15 15 14 15 13 12 11 10 10 12 10 9 7 6 6 6 5 5 5 6 6 6 6 7 7 7 6
4 6 9 12 9 5 6 9 11 10 10 11 14 13 17 15 17 19 19 18 15 16 15 13 11 11 9 8 6 5 5 6 6 7 8 7 8 7 7 7 7 6 6 6
7 10 11 9 7 10 12 15 14 13 14 13 13 13 14 14 17 17 16 16 14 17 16 15 13 14 11 7 6 6 6 6 7 7 7 7 8 8 8 8 7 6 5 7
8 9 8 9 11 14 15 16 14 14 16 15 15 14 13 15 14 14 14 16 15 19 13 13 14 12 8 8 8 8 8 8 9 8 8 8 8 7 7 7 7 6 7 7
8 10 11 12 13 15 17 19 17 16 15 15 14 15 15 14 13 14 15 17 18 14 16 15 13 9 8 8 9 9 9 9 9 9 8 7 7 6 7 7 7 8 8 8
10 12 15 14 16 16 16 15 15 14 14 14 14 14 14 13 15 15 17 15 16 18 17 16 12 10 9 9 10 10 10 9 9 9 8 8 7 8 8 8 8 8 9 9
11 12 16 16 15 15 14 14 13 14 12 13 15 16 16 16 17 16 16 17 19 17 17 15 11 10 10 11 10 10 9 9 9 8 8 8 8 9 8 8 8 8 9 10
10 13 15 15 16 16 15 14 14 13 14 14 15 18 18 17 17 19 18 20 19 16 12 11 10 11 10 9 9 8 9 8 8 8 8 8 9 9 9 8 8 9 9 10
12 14 12 14 15 15 13 13 14 12 13 16 16 21 20 17 21 20 17 18 15 11 11 11 11 9 9 8 8 8 8 8 8 8 8 8 8 8 9 9 9 9 9 9

GFSNW_con_lsi_018.txt.gz
Lid_Strength_Index
4 4 4 4 5 6 6 7 11 8 7 9 10 11 12 11 13 12 12 12 13 14 15 16 16 15 13 13 13 15 14 15 18 16 13 13 13 14 15 18 18 17 17 18
4 4 5 5 5 6 7 10 11 9 9 14 15 14 13 13 13 13 13 14 13 13 15 17 16 14 12 12 13 15 14 16 19 17 14 13 15 14 14 14 14 18 18 17
4 4 4 5 5 6 8 10 13 12 11 12 14 15 15 15 12 14 13 14 13 15 16 14 16 16 14 13 13 11 12 15 17 19 17 15 16 15 14 15 18 16 15 12
4 4 4 4 5 7 8 10 13 13 15 14 14 14 15 16 15 13 14 14 15 16 17 16 17 15 15 13 13 12 13 17 16 15 15 15 15 15 15 15 14 15 12 11
4 4 4 4 5 7 9 12 12 12 13 14 15 15 15 15 15 15 16 15 15 15 16 16 17 15 15 15 13 14 13 17 16 17 15 15 16 15 13 12 11 10 10 10
5 4 4 5 6 6 9 9 9 11 15 15 15 15 15 15 14 14 13 14 15 15 14 12 12 11 12 12 14 14 14 16 17 19 16 16 18 14 12 11 9 9 11 8
5 5 4 5 5 6 7 8 9 12 15 14 14 14 14 15 14 15 14 13 14 12 10 11 11 12 12 13 13 12 14 15 16 19 17 22 15 9 9 9 8 7 7 7
5 5 5 5 5 6 6 7 8 11 14 13 14 14 14 14 13 14 14 13 11 10 12 14 16 15 15 14 13 13 12 14 17 18 18 16 13 10 9 9 10 7 7 7
5 5 5 5 5 5 6 7 7 9 12 14 13 14 13 14 14 14 13 11 10 11 12 14 19 18 17 17 16 12 12 12 15 15 18 20 12 7 6 6 12 6 6 7
5 5 5 5 5 6 6 7 7 9 11 11 11 13 13 12 13 13 13 12 12 11 13 15 17 17 16 18 18 17 15 14 16 16 16 13 7 6 5 13 11 6 5 6
5 6 6 5 5 5 6 7 6 8 11 11 11 11 12 12 12 13 12 13 13 13 15 15 15 17 15 16 15 16 16 16 16 15 16 16 6 6 10 7 5 5 5 5
5 6 6 6 5 5 5 7 6 6 9 10 9 9 8 9 9 11 11 12 12 11 13 14 13 16 15 16 18 13 15 13 14 12 12 6 5 6 4 4 6 6 6 4
5 5 5 6 5 5 5 6 7 7 9 10 10 11 8 7 8 7 11 10 10 11 9 11 12 16 13 17 16 14 11 10 12 12 8 6 5 4 4 4 5 4 4 4
5 5 5 5 5 5 5 6 6 7 9 13 11 8 9 7 6 7 7 9 9 9 9 12 13 15 12 14 13 12 11 10 10 10 7 6 5 5 5 4 4 4 3 4
5 5 5 5 5 4 4 4 4 5 9 12 11 8 7 7 7 8 8 8 9 11 12 13 14 12 13 12 12 12 10 10 10 11 6 8 7 5 4 4 4 4 4 4
4 5 5 5 4 4 5 8 7 5 5 10 15 9 9 8 9 9 9 9 9 11 12 13 12 10 12 14 14 9 8 6 5 7 5 5 4 4 3 4 4 4 4 4
4 4 4 4 2 4 7 9 7 5 5 10 13 12 10 10 10 9 9 9 10 11 12 12 12 11 10 13 13 8 6 5 5 5 5 6 5 5 4 3 4 3 4 4
3 3 4 4 4 4 6 6 5 4 7 8 14 13 12 10 11 11 9 9 11 11 12 10 11 10 11 13 9 7 6 6 6 6 6 6 5 5 5 5 5 6 6 5
2 3 4 5 5 7 7 4 4 4 7 12 13 15 14 10 11 11 10 9 14 10 13 12 11 12 14 10 8 7 6 7 7 7 7 7 8 8 7 7 6 7 6 6
3 4 7 9 6 4 4 7 8 9 9 10 13 10 12 11 12 12 12 11 13 16 13 10 13 13 9 8 6 7 7 6 7 9 10 9 9 9 8 7 6 6 6 6
6 8 9 7 5 7 9 11 13 12 13 11 11 11 12 11 13 12 11 12 13 17 14 14 14 14 11 9 8 7 7 7 7 7 8 8 8 8 8 7 7 7 7 8
6 7 7 8 9 11 13 14 13 14 15 12 12 12 11 12 10 11 12 14 14 17 12 15 16 12 9 9 8 8 7 7 7 7 8 8 8 7 7 7 8 8 8 8
6 8 10 11 12 15 17 18 16 15 12 11 12 13 11 11 10 12 13 16 16 12 15 16 14 11 9 8 8 8 7 7 8 8 8 8 7 7 8 9 8 8 8 8
10 12 14 14 15 15 14 14 13 11 10 11 10 12 12 10 13 13 15 13 13 17 18 16 12 11 10 9 8 8 8 8 9 9 8 8 8 9 8 8 8 8 9 9
11 11 15 14 12 12 11 11 12 11 9 10 11 11 10 13 14 12 13 16 18 16 16 12 11 11 10 9 8 8 8 9 9 8 8 9 9 8 9 8 8 8 8 9
9 11 13 12 13 13 13 12 11 10 9 10 10 12 14 14 14 15 16 17 17 15 12 10 10 11 9 8 8 8 8 8 8 8 8 8 9 9 9 8 8 8 8 9
11 12 10 11 12 12 12 11 11 9 10 11 11 15 16 13 16 16 13 15 12 11 11 10 10 10 8 8 7 7 8 8 8 8 8 8 8 9 9 10 9 9 8 8

GFSNW_con_lsi_021.txt.gz
Lid_Strength_Index
4 4 4 4 5 6 6 5 9 8 6 8 8 9 11 11 12 11 11 11 12 13 14 15 15 14 12 11 11 14 13 15 17 15 12 12 13 14 14 17 17 16 16 17
4 4 4 5 5 6 5 8 9 7 7 11 13 12 13 12 13 12 13 13 13 13 14 16 15 14 11 11 12 14 13 15 18 15 13 12 13 13 13 13 13 17 19 17
4 4 4 5 5 5 6 8 10 10 9 10 12 13 14 14 12 13 12 13 12 14 15 14 15 14 13 12 12 11 12 15 16 18 15 13 15 14 13 14 16 17 16 15
4 4 4 4 5 5 6 8 11 11 12 12 12 12 14 15 14 13 13 13 14 15 16 15 15 14 13 12 11 12 12 16 14 14 14 14 14 15 14 15 15 17 15 14
4 4 4 4 5 5 7 9 10 10 12 12 12 13 14 14 14 14 15 15 14 14 15 15 16 14 14 14 12 13 12 16 15 16 14 14 16 14 14 14 14 14 13 13
5 4 4 4 5 5 8 8 8 9 13 13 12 13 13 14 14 13 13 13 14 14 13 12 12 11 11 12 13 13 13 14 16 18 15 15 17 15 14 13 12 12 13 10
4 5 4 4 5 5 6 7 8 10 13 12 12 13 13 13 13 14 13 12 14 12 10 10 11 11 11 12 12 11 14 14 15 18 16 21 14 11 11 12 12 8 8 7
5 5 4 4 5 5 6 6 7 9 12 11 13 13 13 13 12 13 13 12 11 10 11 13 14 14 14 13 12 12 11 13 16 18 18 16 14 12 12 12 13 7 7 7
5 4 4 4 5 5 5 6 6 7 10 12 11 12 12 12 12 12 12 11 10 11 12 13 17 16 16 16 15 12 12 12 14 16 19 21 14 11 9 9 14 6 7 7
5 5 4 5 5 5 5 6 5 7 9 10 10 12 12 11 11 12 12 12 12 11 12 14 14 15 14 17 17 16 14 14 15 15 16 15 10 9 7 14 12 6 6 6
4 4 4 5 5 4 5 6 5 7 9 9 10 10 11 11 11 13 11 12 12 12 13 13 13 15 14 15 14 15 15 16 16 15 16 17 7 8 10 7 5 5 5 5
4 4 5 5 5 5 4 6 5 6 8 9 8 8 8 8 9 10 10 10 11 10 12 12 12 14 13 14 17 12 15 13 14 13 13 9 7 6 5 4 5 5 5 5
5 5 5 5 5 5 5 6 6 6 9 9 9 9 7 7 7 6 10 9 9 10 8 10 11 14 12 15 14 13 12 10 13 12 10 9 7 5 4 4 5 4 4 4
5 5 5 5 5 5 5 7 6 7 9 11 9 7 8 6 6 7 7 7 8 8 8 11 12 14 11 13 12 13 12 11 12 12 10 9 6 5 4 4 4 4 4 4
4 5 5 5 6 5 5 5 5 6 9 11 10 8 7 6 7 7 7 8 8 10 12 12 13 11 12 11 11 12 10 11 13 13 8 8 6 5 5 5 5 5 5 4
4 5 5 5 5 5 6 9 6 5 5 10 13 8 8 7 7 8 8 8 8 10 11 12 11 10 11 13 13 10 10 9 8 9 6 5 5 4 4 6 5 5 5 5
4 4 4 5 5 5 8 9 7 4 4 9 12 12 8 8 8 8 8 8 9 10 11 12 11 11 10 12 14 10 9 8 7 5 5 7 6 7 6 6 5 5 5 5
3 4 4 5 4 5 7 4 5 4 6 9 14 13 12 8 10 10 8 10 10 11 11 10 11 10 11 14 11 9 8 8 7 6 5 6 6 6 7 6 6 7 7 6
2 3 3 4 6 8 7 4 4 4 7 13 13 14 13 9 9 9 9 9 13 9 12 11 10 12 14 11 10 9 8 9 9 7 7 7 8 8 8 8 7 8 8 7
2 4 7 9 6 3 4 6 8 9 9 9 13 10 12 10 10 11 10 10 12 14 11 9 12 13 10 9 8 8 8 8 8 9 9 9 9 9 8 8 8 8 8 8
5 8 9 5 4 6 8 11 11 11 13 11 11 10 12 10 12 11 10 11 11 14 12 13 13 13 10 8 8 8 8 8 7 7 7 7 8 9 9 9 9 8 8 8
5 6 6 7 9 10 12 13 12 13 13 10 12 12 10 11 8 10 11 12 12 15 10 13 15 11 8 8 9 9 9 8 8 7 8 8 8 8 8 9 9 8 8 8
5 7 9 11 11 14 15 16 15 14 12 11 11 13 11 11 9 11 12 15 15 10 14 15 12 9 8 8 9 10 9 8 8 8 7 8 8 8 8 9 8 8 8 8
10 12 13 12 14 13 12 11 10 9 10 10 10 11 11 11 13 12 15 13 12 15 16 14 10 9 8 9 10 10 9 9 8 8 8 8 9 8 8 9 8 8 8 8
11 11 13 13 10 9 9 8 9 9 9 10 11 11 11 13 13 13 13 15 16 15 15 11 8 8 9 10 9 9 9 9 8 8 8 8 8 8 9 8 8 8 8 8
10 10 11 9 9 9 10 9 10 8 8 8 9 12 12 13 12 14 16 16 16 13 10 8 7 9 9 9 9 9 8 8 8 8 8 8 9 9 9 9 8 8 8 8
11 10 8 7 7 8 9 9 9 7 9 11 11 14 13 11 14 15 13 14 11 9 9 7 8 8 9 9 9 8 8 8 7 7 7 8 8 8 9 10 9 8 8 8

GFSNW_con_lsi_024.txt.gz
Lid_Strength_Index
3 3 4 4 4 5 5 5 9 7 6 9 8 10 10 11 12 11 11 11 12 13 14 15 14 14 12 11 12 15 13 16 19 16 12 12 13 15 15 17 18 17 19 20
4 3 4 4 4 5 6 8 8 6 7 12 13 12 13 12 12 13 12 13 13 13 14 16 14 14 11 11 13 15 14 16 20 17 14 13 14 13 13 14 15 18 20 19
4 4 4 4 4 4 5 7 10 9 9 9 11 13 13 14 12 13 12 13 13 14 14 13 15 14 12 11 13 12 13 16 18 20 17 15 16 15 14 15 18 18 18 16
3 3 3 4 4 4 5 8 11 10 12 12 12 12 13 14 14 13 12 13 14 15 16 15 15 14 14 12 11 12 13 17 16 15 14 15 15 15 15 16 16 18 17 16
4 4 4 4 4 5 6 8 9 9 12 12 12 13 13 13 14 13 14 15 13 14 16 15 16 15 15 15 13 13 13 17 16 17 15 15 16 15 15 15 14 15 14 15
4 4 4 4 5 4 7 7 7 8 13 12 12 13 13 13 13 13 12 13 14 14 13 12 12 13 13 13 14 14 15 16 17 20 16 16 18 15 14 14 13 13 16 13
4 4 4 4 4 5 6 7 7 9 12 11 12 12 12 13 13 13 12 12 13 12 10 11 12 13 13 13 13 12 14 15 16 18 17 23 14 12 12 14 13 11 11 10
4 4 4 4 4 5 6 6 7 9 10 11 12 12 12 12 12 13 13 12 11 10 12 14 15 15 15 14 12 12 12 14 17 19 19 16 14 13 13 14 15 11 11 9
5 4 4 4 4 4 5 6 5 7 10 11 10 12 12 12 13 13 12 11 10 11 13 14 18 17 16 16 15 12 12 12 15 17 20 22 14 12 10 11 17 10 9 8
4 4 4 4 4 4 5 6 5 6 9 9 10 11 12 11 11 13 12 12 12 11 13 14 15 16 14 18 17 16 15 15 17 16 18 15 11 11 10 18 16 9 8 7
5 5 4 4 4 3 4 6 5 7 9 8 9 9 10 11 11 13 12 13 13 13 14 14 14 15 14 15 14 15 16 17 17 16 18 19 10 11 13 10 9 7 6 6
4 4 4 5 4 4 4 6 5 6 8 9 7 8 8 9 9 11 11 11 11 11 12 12 12 14 14 15 18 12 17 14 15 15 15 11 9 10 8 7 7 7 6 6
5 5 5 5 5 5 5 6 6 7 9 9 9 10 8 7 8 7 11 10 9 10 9 11 11 14 13 16 15 14 12 11 13 13 12 11 10 9 8 6 6 5 5 5
4 5 5 5 6 5 5 7 6 7 9 13 10 8 9 7 7 7 7 8 7 8 9 11 12 14 12 14 13 14 12 11 13 13 11 10 10 9 8 7 6 5 5 5
3 4 4 5 5 6 6 6 5 6 10 13 12 9 8 8 7 7 7 8 8 10 11 12 13 12 12 12 12 13 11 13 14 14 11 11 10 8 7 7 6 6 7 7
2 2 3 4 5 5 6 9 6 5 6 11 14 9 10 9 8 8 8 7 8 9 11 12 12 10 12 15 15 11 10 9 9 11 9 9 8 7 6 7 7 7 8 8
1 2 2 2 3 5 8 10 8 5 6 11 13 13 10 8 8 8 8 8 8 9 11 13 12 12 11 13 15 11 10 9 9 8 8 10 9 10 8 8 8 7 7 8
0 1 2 3 3 4 7 5 5 4 7 9 14 14 12 9 11 11 8 9 10 11 12 11 12 11 12 14 11 10 9 9 9 9 9 10 9 9 8 8 8 9 9 9
0 1 2 4 5 7 6 3 4 4 7 13 14 15 14 10 10 10 10 10 13 10 13 13 12 14 15 12 11 10 9 10 10 9 10 10 10 10 9 9 9 10 10 10
1 3 6 9 6 3 4 6 8 9 9 10 13 11 12 11 11 11 11 11 13 14 13 11 14 14 10 10 9 9 8 9 9 11 12 12 12 11 9 9 9 9 10 9
4 7 8 5 3 6 8 10 11 11 13 11 11 11 12 10 12 12 10 12 13 16 14 14 15 15 11 10 9 9 8 9 10 10 10 11 10 10 9 9 9 9 9 9
4 5 5 6 8 10 12 13 11 12 14 11 12 11 10 10 9 11 11 13 13 17 12 15 17 13 10 9 9 9 9 9 9 10 10 10 9 8 9 9 9 9 9 9
4 7 9 10 11 14 14 16 14 13 11 10 11 12 11 11 10 11 12 15 16 12 15 16 14 10 9 9 9 9 10 9 10 10 10 10 9 8 8 9 9 9 9 9
9 11 13 12 13 13 12 11 10 10 9 10 10 11 11 10 12 12 15 14 13 16 18 16 13 10 9 9 10 10 10 10 10 11 10 10 9 8 8 9 9 10 10 9
10 10 12 12 9 8 8 8 7 8 8 10 11 11 11 12 13 12 13 15 18 16 16 12 10 9 9 10 10 10 10 10 11 10 10 9 8 8 9 9 9 9 9 9
8 9 9 8 8 9 7 8 9 8 8 9 9 12 13 14 13 14 16 16 17 14 12 10 9 9 10 10 10 10 10 10 11 10 10 9 8 8 9 9 9 10 9 10
9 9 7 7 6 8 7 7 8 7 9 11 11 14 14 11 14 15 14 15 12 10 10 9 9 9 10 10 10 10 9 10 10 10 9 8 7 8 8 10 9 9 9 9

GFSNW_con_lsi_027.txt.gz
Lid_Strength_Index
3 3 3 3 4 5 6 9 13 10 10 13 14 15 12 11 12 12 12 13 14 15 15 16 16 14 14 12 13 16 16 19 21 19 15 13 15 17 17 22 21 20 23 21
3 3 3 3 4 5 10 14 14 10 10 17 17 15 13 13 13 13 13 13 14 14 16 18 16 14 12 12 14 16 16 20 24 20 17 15 16 15 15 16 18 22 23 19
3 3 3 3 4 4 8 12 14 13 13 15 16 16 16 15 12 13 13 14 13 15 16 15 16 15 12 12 13 11 14 18 21 23 20 17 18 16 15 17 24 20 19 17
3 3 3 3 3 4 8 12 15 13 17 16 16 16 15 15 15 14 14 15 14 16 18 17 17 15 15 13 11 13 15 19 18 17 16 16 16 16 16 17 17 19 17 16
4 4 4 4 4 4 11 12 14 14 15 15 16 15 17 15 15 15 15 16 14 15 17 16 17 16 17 17 15 16 16 20 18 19 16 16 17 16 16 16 15 15 15 16
5 4 4 4 4 6 11 11 10 12 14 15 16 16 15 14 14 14 13 14 15 16 14 14 15 15 15 16 17 17 17 19 20 24 17 17 20 16 16 15 14 15 17 14
4 4 4 4 4 5 10 10 10 13 16 15 14 13 13 14 14 14 13 13 15 13 12 13 14 15 15 15 15 14 17 18 19 23 20 26 16 13 13 14 13 13 13 12
5 4 4 4 4 4 9 9 10 12 16 14 14 13 14 14 14 14 13 13 13 13 14 17 18 17 17 15 14 14 15 17 21 24 24 19 16 14 14 15 15 12 13 11
5 5 4 4 4 4 8 9 9 11 13 15 12 13 14 15 16 15 13 12 12 13 15 16 23 21 19 19 17 13 14 15 18 20 26 27 17 12 11 12 18 12 11 11
4 4 4 4 4 3 7 9 8 10 13 12 13 14 14 13 14 16 14 14 14 14 17 19 21 20 16 20 19 19 18 19 19 19 23 19 13 11 11 20 18 11 11 10
5 4 4 4 3 3 6 8 7 9 12 11 11 10 13 13 14 16 15 15 15 16 19 20 19 20 17 19 17 18 19 21 21 20 23 21 11 12 16 13 11 10 10 10
4 5 5 5 5 4 4 9 7 7 11 11 8 8 9 10 11 13 14 15 15 15 17 17 19 19 19 18 21 15 18 16 19 18 18 13 12 11 10 10 10 10 10 9
3 4 5 5 5 5 5 9 9 10 12 12 12 12 10 9 10 10 14 14 12 13 13 15 16 19 17 20 19 17 15 13 16 17 14 13 11 10 10 9 10 9 9 8
1 2 3 3 3 4 4 8 8 10 12 14 13 9 10 9 10 10 10 11 11 11 12 15 17 18 15 18 16 17 15 15 16 16 13 12 11 11 10 9 9 9 9 8
-0 0 1 3 3 3 5 5 6 6 11 14 13 10 10 10 10 11 10 11 12 13 14 16 16 14 16 16 15 16 13 15 18 16 13 13 13 10 9 10 10 11 10 10
-1 -0 0 1 3 3 5 8 6 5 6 10 16 11 12 10 10 11 11 10 11 12 14 14 13 12 15 22 19 14 13 12 11 13 11 11 10 9 10 11 11 10 9 9
-1 -0 0 1 1 3 6 8 7 5 6 10 13 14 11 10 10 11 11 11 11 11 12 14 13 13 12 14 16 14 12 11 11 10 11 13 11 12 11 11 10 9 9 8
-0 -0 0 1 1 3 5 4 3 4 8 9 16 15 12 10 12 13 11 12 11 11 12 12 13 13 13 17 13 12 11 11 11 10 11 12 12 12 11 10 11 10 9 9
-0 -0 1 2 5 7 6 2 2 3 6 12 13 16 18 11 12 11 11 11 14 11 14 13 13 14 16 13 12 12 11 12 11 11 12 12 12 12 12 12 11 10 10 9
0 2 5 8 6 2 2 5 7 7 8 8 12 12 16 12 13 15 13 12 14 15 13 13 14 15 12 11 10 10 11 10 11 14 14 14 14 13 12 12 10 10 9 10
3 6 7 4 1 5 6 9 10 10 12 10 10 10 14 11 13 13 11 13 14 18 16 16 18 18 13 11 11 10 11 11 12 12 12 12 13 12 11 11 10 9 9 10
4 4 4 4 6 8 10 12 11 12 13 11 11 12 10 11 9 11 11 14 13 17 14 18 19 15 12 12 11 11 11 11 11 11 12 12 11 11 10 11 10 9 9 9
4 6 9 9 10 12 13 16 14 14 12 11 11 12 11 10 10 11 12 14 15 13 19 17 16 13 11 11 11 11 12 11 11 12 11 11 11 9 10 10 9 9 9 9
8 10 12 11 13 12 14 14 12 11 11 10 10 11 12 11 12 11 14 14 15 19 21 19 14 13 11 11 11 12 12 12 12 12 11 11 10 10 10 10 9 9 10 9
8 10 13 11 10 10 10 9 10 9 8 9 11 12 12 12 13 13 13 15 20 19 18 13 13 12 11 12 12 13 12 12 12 12 11 11 10 10 10 10 9 9 9 10
8 9 11 9 11 10 9 10 10 9 8 10 11 12 13 14 13 14 16 18 19 16 12 12 11 12 11 12 12 12 12 12 11 11 11 10 10 10 10 9 9 9 9 10
10 10 9 8 9 9 8 7 8 6 8 12 11 14 14 12 14 16 16 17 14 11 11 11 11 10 11 11 12 11 11 11 11 11 11 9 9 9 10 10 9 8 8 10

GFSNW_con_lsi_030.txt.gz
Lid_Strength_Index
4 3 3 3 4 5 7 11 15 11 10 13 16 16 13 11 13 12 13 14 15 16 16 18 17 15 14 13 14 17 17 19 22 20 16 15 16 18 19 22 22 21 24 22
4 3 3 3 4 5 10 14 14 11 11 17 18 16 14 13 13 14 14 14 14 15 16 19 16 14 12 13 15 17 17 21 24 22 17 16 17 16 16 17 20 23 24 20
3 3 3 3 3 4 10 12 14 13 15 16 16 17 16 16 13 14 14 15 14 16 17 16 17 15 12 13 13 11 14 19 22 23 21 18 19 17 16 18 24 21 19 18
4 4 3 3 3 3 10 14 15 14 17 16 17 17 15 16 16 15 15 16 15 17 19 18 17 16 15 13 11 14 16 20 19 18 17 17 17 17 17 18 17 20 18 17
4 4 4 4 4 5 11 12 14 15 16 16 17 15 17 15 16 16 16 16 15 16 18 17 17 16 17 17 15 16 16 20 19 20 17 17 18 16 16 16 16 16 16 16
4 4 4 4 4 7 11 11 11 14 14 16 16 16 16 14 15 15 14 14 16 16 15 14 15 15 15 16 16 17 18 19 21 24 19 19 21 18 16 16 15 15 18 15
4 4 4 3 4 7 10 11 11 14 16 15 15 14 14 15 15 15 14 14 16 13 13 14 15 16 15 16 16 15 18 19 20 24 21 26 18 15 14 15 14 13 13 13
4 5 5 4 4 4 10 10 11 13 16 15 15 14 14 15 15 15 14 13 13 13 14 16 18 18 17 16 15 16 16 18 22 25 25 20 17 15 15 16 16 13 13 13
5 5 5 5 4 4 9 10 9 12 14 15 13 14 14 16 17 16 14 13 13 13 15 16 23 21 19 19 18 15 16 16 20 21 27 27 18 14 13 13 19 13 13 12
5 4 4 4 4 3 8 9 9 11 13 12 13 15 15 14 15 16 15 14 14 14 17 19 21 20 17 21 20 19 19 19 20 20 25 20 15 13 12 20 19 13 12 12
4 4 4 4 4 4 7 9 8 11 13 12 11 10 13 14 15 16 15 15 16 17 19 20 20 21 19 20 18 18 19 21 22 21 24 23 13 14 16 15 13 11 11 11
3 4 5 5 5 5 6 10 8 8 12 13 9 9 10 11 12 14 15 16 16 16 18 19 21 20 21 19 21 17 19 17 19 18 19 14 13 13 12 11 11 11 11 10
1 2 3 3 3 3 5 9 9 11 13 13 12 12 9 10 10 10 14 15 14 14 14 16 19 21 19 21 20 19 15 14 17 17 15 14 13 12 11 10 10 10 10 11
-0 1 1 2 2 3 4 7 7 9 10 13 11 8 10 9 9 9 10 11 11 12 14 16 19 20 16 20 17 18 15 15 16 17 15 14 13 13 11 10 10 11 11 11
-1 -0 0 1 1 2 5 7 6 6 10 13 12 9 8 8 9 9 9 10 12 13 15 16 18 17 16 17 17 19 13 14 17 16 14 14 14 12 10 11 12 12 12 12
-0 -1 -0 0 1 2 5 7 6 5 7 11 16 10 10 9 9 9 9 10 11 12 13 14 14 13 14 19 21 14 12 12 12 14 13 13 12 10 12 13 12 11 11 11
0 -0 -0 0 1 3 6 7 6 3 5 9 14 15 11 9 9 10 11 10 11 11 12 14 14 14 13 19 18 13 12 12 12 12 13 14 12 14 13 12 11 10 11 11
1 0 0 1 1 3 6 5 3 4 6 8 13 15 14 10 12 13 10 12 11 10 12 13 13 13 13 16 13 12 12 12 12 12 12 12 13 13 13 12 12 12 12 11
1 1 1 2 4 6 6 3 2 4 7 12 13 14 18 11 12 12 11 12 16 12 15 13 13 16 16 13 12 12 12 12 12 12 12 13 13 14 14 14 13 13 11 11
2 3 5 8 6 2 3 5 7 8 8 8 12 12 16 12 14 16 14 15 17 15 14 13 14 15 12 10 11 10 11 11 11 13 14 14 15 14 14 14 12 11 11 11
6 6 7 5 2 5 7 10 10 10 12 10 10 10 13 11 12 11 11 14 13 17 16 15 17 17 13 11 11 10 10 11 11 11 13 13 13 13 13 12 12 11 10 11
6 6 5 5 7 9 11 12 11 12 13 11 10 10 9 9 8 10 10 12 13 18 14 17 18 15 12 12 11 11 11 11 12 12 12 13 12 13 13 12 11 10 10 11
5 7 9 10 11 14 14 16 14 13 11 9 9 11 9 9 8 9 11 13 15 14 16 17 16 12 12 12 12 12 12 12 12 12 12 12 12 11 11 11 10 10 10 10
8 10 14 14 14 13 12 13 12 10 10 9 9 11 10 9 10 10 12 12 14 19 20 18 14 11 12 11 11 12 12 12 12 12 12 12 12 12 11 10 10 10 10 10
9 10 14 15 12 11 11 11 10 9 8 8 9 10 10 11 11 11 12 14 18 18 18 14 11 12 12 11 11 12 12 12 12 12 12 12 12 12 11 10 10 10 10 10
8 10 12 11 12 11 11 11 11 8 7 8 8 10 11 12 12 13 15 17 18 16 13 10 10 12 12 11 10 11 12 12 12 12 12 12 12 11 10 9 9 10 10 10
9 11 9 10 10 10 10 9 9 6 7 9 9 12 13 10 13 16 15 16 14 11 10 9 10 11 11 11 11 11 11 12 12 12 12 11 11 10 9 10 9 9 9 9

GFSNW_con_lsi_033.txt.gz
Lid_Strength_Index
3 3 2 3 3 4 7 12 15 12 10 13 17 16 14 11 13 12 13 14 15 16 17 18 17 16 15 13 15 17 17 19 22 20 17 16 17 19 19 22 23 23 25 23
4 3 3 2 3 5 12 15 15 12 12 17 18 16 14 14 14 15 14 15 15 16 17 19 17 15 13 13 15 17 17 21 23 21 18 17 18 17 17 19 21 24 24 21
4 4 3 3 3 3 11 13 15 14 15 17 17 18 17 16 14 14 14 15 15 16 17 17 17 16 13 13 14 11 15 20 21 22 20 19 20 18 18 19 25 22 20 18
4 4 4 3 4 4 10 14 15 15 18 17 17 17 16 17 17 15 15 16 16 17 19 18 18 16 15 14 12 14 17 20 19 19 18 18 18 18 18 19 19 21 19 19
4 4 4 4 5 6 12 13 15 16 16 17 17 16 17 15 16 16 17 17 15 17 19 18 18 17 17 17 15 16 17 20 19 20 18 18 19 17 17 17 17 17 17 17
4 4 4 4 4 8 12 13 13 14 15 17 17 17 16 15 15 15 14 15 16 17 16 15 15 16 16 16 16 17 18 19 21 24 20 20 21 19 18 18 17 16 18 15
4 4 4 4 4 7 11 12 13 14 17 16 15 15 14 15 15 16 14 15 16 14 13 14 15 16 15 16 16 15 18 19 20 24 22 26 18 16 16 17 16 15 15 14
4 4 4 4 4 6 10 11 12 14 17 16 15 15 15 15 16 16 14 14 14 13 14 17 18 18 18 16 16 17 16 18 23 25 25 21 18 17 17 18 18 14 14 14
4 4 4 5 4 5 10 11 11 13 15 15 14 15 15 17 18 16 15 14 14 14 16 17 23 21 19 19 18 16 17 18 21 22 28 27 19 16 14 15 20 15 14 14
4 4 5 5 4 4 9 10 9 11 14 12 14 15 15 14 16 16 16 15 15 15 17 19 21 20 17 20 20 20 20 20 22 22 26 21 16 15 14 21 19 14 14 13
3 4 4 4 4 4 8 9 9 12 14 13 11 11 13 14 15 16 15 15 16 17 19 20 20 21 19 21 20 19 20 22 23 22 25 23 14 15 17 15 15 13 13 12
1 2 3 4 4 4 6 11 8 9 13 13 10 10 10 12 12 14 16 16 16 16 18 19 20 20 21 19 22 18 20 17 20 19 19 14 14 15 13 13 13 13 13 12
0 1 2 3 3 3 5 8 8 9 11 11 11 10 9 8 9 10 13 14 12 14 13 16 17 20 18 21 20 19 17 15 18 16 16 15 14 13 13 12 12 12 12 13
-1 -0 1 1 2 2 4 8 7 9 10 13 10 8 9 8 8 9 9 10 10 12 12 13 16 16 14 19 17 18 15 15 16 16 15 14 14 14 13 11 11 12 13 12
1 -0 -0 1 1 2 5 7 7 7 10 13 12 10 9 8 9 9 9 9 11 13 14 16 16 14 14 15 17 19 14 15 15 16 14 15 15 13 11 12 13 13 13 13
2 1 0 0 1 2 6 9 7 5 7 11 15 11 10 9 9 9 9 10 11 12 13 15 14 12 13 20 20 15 13 11 11 13 14 13 13 12 12 13 13 12 12 12
2 1 1 0 1 4 7 8 7 4 5 10 14 15 11 10 10 10 10 10 11 12 13 14 14 14 13 20 20 13 12 11 12 13 13 14 12 13 13 12 12 12 12 12
2 1 1 1 1 3 5 5 3 4 7 8 15 15 14 11 13 13 11 12 12 12 13 13 14 13 14 19 13 13 12 12 13 12 12 12 12 13 13 12 13 13 13 13
2 2 2 4 4 6 6 3 3 5 8 12 13 14 19 12 13 12 12 12 14 12 13 12 12 15 16 13 12 11 11 12 12 12 12 13 14 14 13 14 13 14 14 13
3 5 7 10 7 3 4 6 8 8 8 9 12 12 13 12 15 15 13 14 16 13 12 10 12 14 11 11 10 10 10 11 11 13 14 15 15 14 14 14 13 13 13 12
8 8 9 6 3 6 7 10 11 11 12 10 9 10 11 11 12 12 11 11 11 15 15 14 14 16 13 10 10 9 10 11 11 10 12 12 13 14 14 14 13 12 13 12
8 7 6 6 8 10 12 12 11 12 12 10 10 10 9 9 8 9 9 10 11 15 13 13 16 14 11 10 11 11 11 11 11 11 12 13 12 13 13 13 13 12 12 11
6 8 10 11 11 15 15 16 14 13 10 11 9 10 9 8 8 8 9 12 13 12 13 15 14 12 10 11 11 11 11 11 12 13 12 12 12 12 12 12 12 12 11 10
9 11 14 14 17 14 15 15 14 11 11 10 9 10 9 8 9 9 12 10 11 16 16 16 14 11 11 10 10 11 12 12 12 12 12 12 12 12 12 11 11 10 11 10
10 11 15 16 14 14 13 12 12 11 9 8 9 9 8 10 10 9 10 13 17 16 16 13 11 10 10 11 10 11 13 13 12 12 12 12 12 12 12 12 11 10 10 10
9 11 13 13 15 13 13 12 12 10 9 10 9 11 12 12 10 12 15 16 17 15 13 10 9 10 9 9 10 11 12 12 12 12 12 12 12 12 12 11 11 10 9 10
11 12 10 11 12 12 12 11 10 8 9 11 9 11 12 10 14 13 12 15 13 10 10 9 8 7 6 7 10 10 11 12 12 12 12 12 11 11 11 12 11 9 9 9

GFSNW_con_lsi_036.txt.gz
Lid_Strength_Index
3 3 2 2 3 4 8 13 15 12 11 13 17 16 15 12 14 13 14 15 15 16 17 18 18 16 15 14 15 18 18 20 22 21 18 16 18 19 19 21 22 23 25 23
4 3 3 3 3 4 12 15 15 12 12 16 18 16 15 14 14 15 14 15 15 16 17 19 17 16 13 14 16 17 18 21 23 21 19 17 18 17 18 20 21 24 24 21
4 4 3 3 3 4 11 13 15 14 16 17 16 17 17 17 14 15 15 16 15 17 18 17 18 16 14 14 14 11 15 21 21 21 20 19 19 18 18 19 24 22 21 19
4 4 4 4 5 5 11 14 15 15 17 17 18 17 16 17 17 16 16 17 16 17 19 19 19 16 15 14 12 15 17 20 21 19 19 19 19 19 18 19 20 21 18 20
4 4 4 4 5 6 13 15 16 17 17 17 16 16 17 16 16 17 17 17 16 17 19 18 18 17 17 17 16 16 17 20 19 20 18 18 19 17 17 17 17 18 18 18
3 3 4 4 5 7 12 13 14 14 16 18 17 17 16 15 15 15 15 16 16 17 16 15 16 16 16 16 16 17 18 19 21 24 20 20 21 19 18 18 17 17 20 17
4 3 3 3 4 8 11 12 14 14 17 17 16 15 15 16 16 17 15 15 17 15 14 14 15 16 16 16 16 16 19 19 20 24 22 25 18 17 17 17 17 16 16 15
4 4 4 4 4 6 11 12 13 15 17 17 16 15 16 16 16 16 15 15 15 14 15 18 19 18 18 17 17 17 16 18 22 25 25 21 18 18 18 18 18 15 16 15
4 4 4 4 4 5 10 11 12 14 15 15 15 15 15 16 18 17 15 14 14 14 16 17 23 21 20 19 19 17 17 18 20 23 28 26 19 16 15 16 20 16 15 15
3 4 4 4 4 4 9 11 11 13 14 13 14 15 15 15 16 17 16 15 15 15 18 19 21 20 18 20 20 20 20 21 22 23 26 22 17 15 15 21 18 15 15 15
2 3 4 4 4 4 8 10 9 12 14 13 12 12 15 15 15 16 16 16 17 18 19 20 20 21 18 20 19 19 20 21 22 22 25 23 15 16 18 16 16 14 14 13
1 1 2 3 3 3 6 10 7 8 11 10 9 9 9 10 11 13 14 14 15 14 16 17 18 18 19 18 20 18 19 17 19 19 19 15 13 14 14 14 14 14 13 13
0 1 1 2 2 3 5 8 8 9 10 10 10 10 9 7 8 9 12 13 12 13 13 15 17 19 17 19 18 18 16 15 17 17 15 13 12 12 13 12 13 12 12 13
1 -0 0 1 2 3 5 8 8 9 11 13 10 8 9 8 9 9 9 10 10 11 12 14 18 18 14 17 16 17 14 14 15 16 13 13 12 13 13 12 12 12 13 13
2 1 1 0 1 2 6 8 8 8 9 13 12 10 9 9 9 9 9 10 11 12 14 16 16 15 15 16 17 19 14 15 16 14 11 13 14 13 12 12 12 13 13 13
2 2 1 1 1 3 7 10 8 6 8 11 14 11 11 10 10 10 10 10 11 12 13 15 14 13 14 21 20 15 13 11 10 11 13 13 13 13 12 12 13 12 13 13
2 2 1 2 1 5 8 9 8 5 7 11 15 16 12 11 11 11 11 10 12 12 13 15 15 14 13 21 22 12 13 11 10 10 13 14 13 13 12 12 12 11 12 12
2 2 2 2 2 3 5 6 4 5 8 10 15 16 14 12 13 13 12 13 13 13 13 13 14 14 15 19 15 11 10 10 11 11 11 11 12 13 13 12 13 13 14 13
3 2 2 4 5 7 8 4 3 5 8 16 13 15 17 12 14 14 13 13 15 13 15 13 13 14 17 14 11 10 9 11 11 11 12 13 13 13 13 13 14 14 14 14
3 7 9 10 6 4 5 8 9 9 8 9 12 12 16 13 16 15 15 13 15 15 13 12 13 14 10 9 9 8 9 10 10 12 13 14 15 14 14 14 13 13 13 13
8 10 10 6 4 7 8 11 12 12 13 11 10 10 13 12 12 12 11 13 14 15 15 13 14 15 10 9 9 7 8 9 9 9 10 11 12 13 14 14 13 13 13 13
8 9 6 6 10 11 12 14 12 13 13 10 10 10 11 10 9 11 10 11 13 16 14 13 15 12 10 10 9 10 10 10 11 11 11 12 12 12 13 13 13 13 12 12
8 10 11 12 12 16 16 17 15 13 10 11 10 12 12 10 10 10 9 11 14 12 14 15 13 11 9 9 9 9 10 10 10 11 11 12 12 12 12 12 12 12 12 12
11 12 15 15 16 14 15 15 14 11 12 12 11 12 11 9 10 9 12 10 12 16 16 16 13 11 10 7 8 9 9 10 10 11 11 12 12 12 12 12 12 12 12 11
11 12 15 15 14 15 14 12 12 12 10 10 10 9 8 10 10 10 11 13 18 16 16 13 10 9 7 6 6 7 8 10 11 11 12 12 12 12 12 12 12 11 11 10
11 12 14 14 16 15 14 13 12 10 10 11 10 11 11 11 12 12 13 15 18 15 13 10 8 8 7 7 6 6 9 11 11 11 11 12 12 12 12 12 12 11 11 10
13 14 11 13 14 13 13 11 11 9 10 13 11 12 13 13 12 13 14 15 13 10 10 9 7 8 7 7 7 7 8 10 12 12 11 11 11 12 12 13 12 11 10 9